Regional Weather Roundup
Issued by NWS

Home | Current Version | Previous Version | Graphics & Text | Print | Product List | Glossary On
Versions: 1 2 3 4 5 6 7 8 9 10 11 12 13 14 15 16 17 18 19 20 21 22 23 24 25 26 27 28 29 30 31 32 33 34 35 36 37 38 39 40 41 42 43 44 45 46 47 48 49 50
000
ASUS43 KLOT 020000
RWRIL

ILLINOIS REGIONAL WEATHER ROUNDUP
NATIONAL WEATHER SERVICE CHICAGO/ROMEOVILLE IL
700 PM CDT WED JUL 01 2015

NOTE: "FAIR" INDICATES FEW OR NO CLOUDS BELOW 12,000 FEET WITH NO
SIGNIFICANT WEATHER AND/OR OBSTRUCTIONS TO VISIBILITY.

* THESE STATIONS ARE NOT UNDER NWS QUALITY CONTROL. THEY ALSO MAY NOT
  REPORT WEATHER SUCH AS PRECIPITATION OR FOG.

ILZ001-002-007-009-015-016-024-020100-
NORTHWEST ILLINOIS

CITY           SKY/WX    TMP DP  RH WIND       PRES   REMARKS
MOLINE         MOSUNNY   72  57  59 NE9       29.92S
6HR MIN TEMP:  69; 6HR MAX TEMP:  74;

STERLING*      CLOUDY    68  57  68 NE3       29.95R
$$

ILZ003-004-008-010-011-017-018-020100-
NORTH CENTRAL ILLINOIS

CITY           SKY/WX    TMP DP  RH WIND       PRES   REMARKS
ROCKFORD       CLOUDY    69  51  52 NE10      29.97R
6HR MIN TEMP:  68; 6HR MAX TEMP:  75;

$$

ILZ005-006-012>014-019>023-020100-
NORTHEAST ILLINOIS

CITY           SKY/WX    TMP DP  RH WIND       PRES   REMARKS
CHICAGO-OHARE  CLOUDY    59  50  72 NE12      29.98S
6HR MIN TEMP:  59; 6HR MAX TEMP:  69;

CHICAGO-MIDWAY PTSUNNY   62  51  67 E13       29.98R
6HR MIN TEMP:  62; 6HR MAX TEMP:  68;

AURORA         MOSUNNY   66  53  63 E12       29.96R
6HR MIN TEMP:  66; 6HR MAX TEMP:  73;

WAUKEGAN       CLOUDY    54  50  86 E6        29.99S
6HR MIN TEMP:  54; 6HR MAX TEMP:  62;

DUPAGE AIRPORT MOSUNNY   61  50  67 E13       29.97R
6HR MIN TEMP:  61; 6HR MAX TEMP:  73;

WHEELING       PTSUNNY   57  50  77 NE8       30.01R
6HR MIN TEMP:  57; 6HR MAX TEMP:  65;

NORTHERLY ISL    N/A     57  50  77 NE12        N/A
$$

LMZ740>746-020100-
SOUTHERN LAKE MICHIGAN

STATION/POSITION SKY/WX   TEMP    WIND        PRES    VSBY  WAVE
                          AIR SEA DIR/SP/G                  HT/PER
                          (F)     (DEG/KT/KT) (MB)    (MI)  (FT/S)
HARRISON CRIB              56      40/  9/ 11   N/A
BURNHAM HARBOR             58      30/  8/ 10   N/A
CALUMET HARBOR             59      30/  9/ 11   N/A
BURNS HARBOR               60      50/ 12/ 13 1015.6R
MICHIGAN CITY              58      20/ 11/ 13   N/A
MICHIGAN CITY 6N           59 65   50/ 10/ 14   N/A           3/ 5
ST. JOSEPH                 58 63                N/A           3/ 4
$$

ILZ025>027-034>036-040-047-049-050-058-095>099-020100-
WEST-CENTRAL ILLINOIS

CITY           SKY/WX    TMP DP  RH WIND       PRES   REMARKS
QUINCY         PTSUNNY   77  69  76 E14       29.88R HAZE
MACOMB*        CLOUDY    72  66  82 NE7       29.93R
$$

ILZ028>032-037-038-041>044-048-051>054-059>061-020100-
CENTRAL ILLINOIS

CITY           SKY/WX    TMP DP  RH WIND       PRES   REMARKS
DECATUR        CLOUDY    74  67  78 NE9       29.90R
PEORIA         PTSUNNY   75  64  68 NE9       29.92R
6HR MIN TEMP:  75; 6HR MAX TEMP:  79;

SPRINGFIELD    CLOUDY    76  68  76 NE10      29.89R
6HR MIN TEMP:  76; 6HR MAX TEMP:  84; 6HR PCP:  0.12;

TAYLORVILLE    NOT AVBL
$$

ILZ033-039-045-046-055>057-062-063-020100-
EAST-CENTRAL ILLINOIS

CITY           SKY/WX    TMP DP  RH WIND       PRES   REMARKS
CHAMPAIGN      CLOUDY    73  65  75 NE6       29.91R
MATTOON        CLOUDY    75  68  78 NE8       29.88S HAZE
$$

ILZ079-100>102-020100-
SOUTHWEST ILLINOIS

CITY           SKY/WX    TMP DP  RH WIND       PRES   REMARKS
BELLEVILLE     PTSUNNY   81  73  75 CALM      29.86R HX  86
CAHOKIA*       CLOUDY    82  70  66 E5        29.86R HX  86
SPARTA*        PTSUNNY   82  70  66 CALM      29.89R HX  86
$$

ILZ064>066-069>071-074>076-080>082-084>086-088>090-092>094-020100-
SOUTH-CENTRAL ILLINOIS

CITY           SKY/WX    TMP DP  RH WIND       PRES   REMARKS
CARBONDALE     MOSUNNY   81  70  69 S8        29.88S HX  84
6HR MIN TEMP:  75; 6HR MAX TEMP:  82;

MT. VERNON     CLOUDY    81  68  65 S8        29.89R HX  83
SALEM*         CLOUDY    82  70  67 CALM      29.88R HX  85
$$

ILZ067-068-072-073-078-083-087-091-020100-
SOUTHEAST ILLINOIS

CITY           SKY/WX    TMP DP  RH WIND       PRES   REMARKS
LAWRENCEVILLE  LGT RAIN  78  69  73 E5        29.88R HX  80
$$

ABBREVIATIONS USED IN REMARKS
   TC - TEMPERATURE IN CELSIUS
  WCI - WIND CHILL INDEX
   HX - HEAT INDEX
  VSB - VISIBILITY
$$




USA.gov is the U.S. government's official web portal to all federal, state and local government web resources and services.